Location: Copeville
(33.0796°N, 96.4155°W)
Time: 05:23:05
(UTC+00:00)

JUGNU - Pass Details

Date: 20 April 2024
Orbit: 835 x 862 km, 20.0° (Epoch: 19 May)

Event Time Altitude Azimuth Distance (km) Brightness Sun altitude
Rises 03:32:32 0° 249° (WSW) 3,380 ? -29.3°
Reaches altitude 10° 03:35:48 10° 232° (SW) 2,450 ? -29.8°
Enters shadow 03:36:52 14° 223° (SW) 2,210 ? -30.0°
